This is the latest recevied weather packets stored in our database for station/object WA4IKQ. If no packets are shown the sender has not sent any weather packets the latest 10 day(s).
| Time | Temp. | Humidity | Pressure | Rain* | Wind** | Luminosity | Snow |
|---|---|---|---|---|---|---|---|
| 1778257608 | 31.11° C | 57% | 1015 hPa | 0 mm | 1.34 m/s, 218° | - | - |
| 1778257409 | 30.56° C | 58% | 1015 hPa | 0 mm | 1.34 m/s, 253° | - | - |
| 1778257308 | 30.56° C | 58% | 1015 hPa | 0 mm | 1.34 m/s, 253° | - | - |
| 1778257131 | 30.56° C | 59% | 1015.2 hPa | 0 mm | 0.45 m/s, 201° | - | - |
| 1778257091 | 30.56° C | 59% | 1015.2 hPa | 0 mm | 0.45 m/s, 201° | - | - |
| 1778257009 | 30.56° C | 59% | 1015.2 hPa | 0 mm | 0.45 m/s, 201° | - | - |
| 1778256936 | 30° C | 61% | 1015.3 hPa | 0 mm | 2.24 m/s, 231° | - | - |
| 1778256712 | 30° C | 61% | 1015.3 hPa | 0 mm | 2.24 m/s, 231° | - | - |
| 1778256500 | 30° C | 61% | 1015.4 hPa | 0 mm | 1.79 m/s, 179° | - | - |
| 1778256409 | 30° C | 61% | 1015.4 hPa | 0 mm | 1.79 m/s, 179° | - | - |
| 1778255992 | 30° C | 61% | 1015.6 hPa | 0 mm | 0.45 m/s, 262° | - | - |
| 1778255807 | 30° C | 61% | 1015.6 hPa | 0 mm | 0.45 m/s, 262° | - | - |
| 1778255649 | 30° C | 61% | 1015.6 hPa | 0 mm | 2.68 m/s, 222° | - | - |
| 1778255511 | 30° C | 61% | 1015.6 hPa | 0 mm | 2.68 m/s, 222° | - | - |
| 1778255293 | 30° C | 60% | 1015.6 hPa | 0 mm | 3.58 m/s, 201° | - | - |
| 1778255207 | 30° C | 60% | 1015.6 hPa | 0 mm | 3.58 m/s, 201° | - | - |
| 1778254982 | 30° C | 62% | 1015.7 hPa | 0 mm | 3.13 m/s, 218° | - | - |
| 1778254916 | 30° C | 62% | 1015.7 hPa | 0 mm | 3.13 m/s, 218° | - | - |
| 1778254794 | 30° C | 62% | 1015.7 hPa | 0 mm | 1.34 m/s, 218° | - | - |
| 1778254608 | 30° C | 62% | 1015.7 hPa | 0 mm | 1.34 m/s, 218° | - | - |
| 1778254402 | 30° C | 63% | 1015.7 hPa | 0 mm | 1.34 m/s, 207° | - | - |
| 1778254312 | 30° C | 63% | 1015.7 hPa | 0 mm | 1.34 m/s, 207° | - | - |
| 1778254078 | 30° C | 63% | 1015.7 hPa | 0 mm | 0.45 m/s, 246° | - | - |
| 1778254005 | 30° C | 63% | 1015.7 hPa | 0 mm | 0.45 m/s, 246° | - | - |
| 1778253917 | 30° C | 63% | 1015.8 hPa | 0 mm | 1.79 m/s, 186° | - | - |
* Rain latest hour (hover to see other rain measurements)
** Current wind speed in m/s (hover to see current wind gust speed)